Yuma MCAS, AZ

11:15 PM MST on September 25, 2017 (GMT -0700)
Yuma Marine Corps Air Station

Weather History for KNYL - April, 2013

Change the Weather History Date:

Sunday, April 28, 2013

  Actual Average Record
Temperature  
Mean Temperature 84 °F 76 °F  
Max Temperature 103 °F 90 °F 106 °F (1992)
Min Temperature 65 °F 63 °F 45 °F (1911)
Degree Days  
Heating Degree Days 0 0  
Month to date heating degree days 0 12  
Since 1 July heating degree days 705 685  
Cooling Degree Days 19 11  
Month to date cooling degree days 270 228  
Year to date cooling degree days 479 381  
Growing Degree Days 33 (Base 50)    
Moisture  
Dew Point 29 °F    
Average Humidity 19    
Maximum Humidity 34    
Minimum Humidity 3    
Precipitation  
Precipitation 0.00 in 0.01 in 0.86 in (1933)
Month to date precipitation T 0.15  
Year to date precipitation 1.11 1.24  
Sea Level Pressure  
Sea Level Pressure 29.76 in    
Wind  
Wind Speed 5 mph (WSW)    
Max Wind Speed 13 mph    
Max Gust Speed 17 mph    
Visibility 10 miles    
Events      
T = Trace of Precipitation, MM = Missing Value Source: NWS Daily Summary

Daily Weather History Graph

Daily Weather History Graph

Search for Another Location

Airport or City:

Trip Planner

Search our weather history database for the weather conditions in past years. The results will help you decide how hot, cold, wet, or windy it might be!

Date:

Astronomy

Apr. 28, 2013 Rise Set
Actual Time 5:54 AM MST 7:18 PM MST
Civil Twilight 5:28 AM MST 7:44 PM MST
Nautical Twilight 4:57 AM MST 8:15 PM MST
Astronomical Twilight 4:24 AM MST 8:47 PM MST
Moon 10:46 PM MST (4/28) 8:20 AM MST (4/28)
Length of Visible Light 14h 16m
Length of Day
13h 23m
Waning Gibbous, 88% of the Moon is Illuminated
Apr 28
Waning Gibbous
May 2
Last Quarter
May 9
New
May 17
First Quarter
May 24
Full

Hourly Weather History & Observations

Time (MST) Temp. Dew Point Humidity Pressure Visibility Wind Dir Wind Speed Gust Speed Precip Events Conditions
12:55 AM 75.9 °F 28.9 °F 18% 29.83 in 10.0 mi WNW 4.6 mph - N/A   Clear
1:55 AM 73.0 °F 32.0 °F 22% 29.81 in 10.0 mi WNW 6.9 mph - N/A   Clear
2:55 AM 73.9 °F 32.0 °F 21% 29.81 in 10.0 mi Calm Calm - N/A   Clear
3:55 AM 69.1 °F 34.0 °F 27% 29.80 in 10.0 mi South 3.5 mph - N/A   Clear
4:55 AM 69.1 °F 34.0 °F 27% 29.81 in 10.0 mi East 3.5 mph - N/A   Clear
5:55 AM 64.9 °F 35.1 °F 33% 29.81 in 10.0 mi South 3.5 mph - N/A   Clear
6:55 AM 71.1 °F 33.1 °F 25% 29.81 in 10.0 mi Calm Calm - N/A   Clear
7:00 AM - - N/A% - - North - - N/A   Unknown
7:55 AM 73.0 °F 39.0 °F 29% 29.83 in 10.0 mi Calm Calm - N/A   Clear
8:55 AM 82.9 °F 37.9 °F 20% 29.83 in 10.0 mi WSW 3.5 mph - N/A   Clear
9:55 AM 88.0 °F 37.9 °F 17% 29.83 in 10.0 mi SSE 3.5 mph - N/A   Clear
10:55 AM 93.9 °F 33.1 °F 12% 29.83 in 10.0 mi West 4.6 mph - N/A   Clear
11:55 AM 99.0 °F 21.9 °F 6% 29.81 in 10.0 mi NW 5.8 mph - N/A   Clear
12:55 PM 102.0 °F 19.0 °F 5% 29.79 in 10.0 mi West 10.4 mph - N/A   Clear
1:55 PM 102.0 °F 26.1 °F 7% 29.76 in 10.0 mi West 9.2 mph - N/A   Clear
2:55 PM 102.0 °F 5.0 °F 4% 29.73 in 10.0 mi Calm Calm - N/A   Clear
3:55 PM 102.9 °F 12.0 °F 4% 29.70 in 10.0 mi SSW 5.8 mph - N/A   Clear
4:55 PM 102.0 °F 18.0 °F 5% 29.69 in 10.0 mi West 11.5 mph - N/A   Clear
5:55 PM 100.0 °F 25.0 °F 7% 29.68 in 10.0 mi West 6.9 mph - N/A   Clear
6:55 PM 93.9 °F 30.0 °F 10% 29.67 in 10.0 mi West 9.2 mph - N/A   Clear
7:55 PM 90.0 °F 30.9 °F 12% 29.68 in 10.0 mi West 6.9 mph - N/A   Clear
8:00 PM - - N/A% - - North - - N/A   Unknown
8:55 PM 86.0 °F 32.0 °F 14% 29.70 in 10.0 mi WSW 6.9 mph - N/A   Clear
9:55 PM 84.9 °F 28.0 °F 13% 29.71 in 10.0 mi West 10.4 mph - N/A   Clear
10:55 PM 82.0 °F 30.9 °F 16% 29.71 in 10.0 mi West 8.1 mph - N/A   Clear
11:55 PM 80.1 °F 30.9 °F 17% 29.71 in 10.0 mi West 5.8 mph - N/A   Clear